Tracking 29892 objects as of 21-Nov-2024
HD Live streaming from Space Station
objects crossing your sky now

BLOCK DM-SL R/B

Track BLOCK DM-SL R/B now!


NORAD ID: 28900
Int'l Code: 2005-044B
Perigee: 246.2 km
Apogee: 31,291.8 km
Inclination: 3.1 °
Period: 546.4 minutes
Semi major axis: 22139 km
RCS: 18.3139 m2 (large)
Launch date: November 8, 2005
Source: Sea Launch (SEAL)
Launch site: SEA LAUNCH (SEAL)

Note: This is a ROCKET BODY
Your satellite tracking list
Your tracking list is empty




NASA's NSSDC Master Catalog

Two Line Element Set (TLE):
1 28900U 05044B   24325.59846242  .00013333  00000-0  23926-2 0  9995
2 28900   3.1415  30.5436 7011215 203.7943  93.8755  2.63534589169245
Source of the keplerian elements: AFSPC